Regional Weather Roundup
Issued by NWS

Home | Current Version | Previous Version | Graphics & Text | Print | Product List | Glossary On
Versions: 1 2 3 4 5 6 7 8 9 10 11 12 13 14 15 16 17 18 19 20 21 22 23 24 25 26 27 28 29 30 31 32 33 34 35 36 37 38 39 40 41 42 43 44 45 46 47 48 49 50
000
ASUS43 KLMK 252102
RWRKY
KENTUCKY REGIONAL WEATHER ROUNDUP
NATIONAL WEATHER SERVICE LOUISVILLE KY
500 PM EDT WED APR 25 2018

NOTE "FAIR" INDICATES FEW OR NO CLOUDS BELOW 12,000 FEET
WITH NO SIGNIFICANT WEATHER AND/OR OBSTRUCTIONS TO VISIBILITY.

KYZ001>023-026-027-061>063-070>075-252200-
WESTERN AND SOUTH CENTRAL KENTUCKY

CITY           SKY/WX    TMP DP  RH WIND       PRES   REMARKS
PADUCAH        FAIR      71  49  45 CALM      29.95F
HENDERSON      FAIR      68  50  52 N6        29.97S
OWENSBORO      FAIR      69  52  54 NW10      29.96F
HOPKINSVILLE   FAIR      69  52  54 W7        29.96F
BOWLING GREEN  CLOUDY    68  50  52 VRB3      29.95F
GLASGOW        NOT AVBL
$$

KYZ024-025-028>034-038-045-046-053-252200-
NORTH CENTRAL KENTUCKY

CITY           SKY/WX    TMP DP  RH WIND       PRES   REMARKS
LOUISVILLE/SDF PTSUNNY   69  46  43 VRB7G18   29.94F
LOUISVILLE/LOU FAIR      69  48  47 NW10G16   29.94F
FORT KNOX      FAIR      68  47  47 N10       29.95F
$$

KYZ035>037-039>044-047>052-055>060-089>105-252200-
NORTHEAST KENTUCKY

CITY           SKY/WX    TMP DP  RH WIND       PRES   REMARKS
LEXINGTON      PTSUNNY   63  51  65 N8        29.95S
COVINGTON      FAIR      66  44  45 NW12G21   29.92F
FRANKFORT      PTSUNNY   65  47  52 N12       29.93S
$$

KYZ054-064>069-076>088-106>120-252200-
SOUTHEAST KENTUCKY

CITY           SKY/WX    TMP DP  RH WIND       PRES   REMARKS
JACKSON        CLOUDY    57  50  77 NW6       29.92S
LONDON         CLOUDY    57  50  77 NW8       29.94R
SOMERSET       NOT AVBL
MIDDLESBORO    RAIN      57  52  84 NW9G17    29.94R
MONTICELLO     NOT AVBL
$$





USA.gov is the U.S. government's official web portal to all federal, state and local government web resources and services.